This is the latest recevied weather packets stored in our database for station/object OE3DJB-10. If no packets are shown the sender has not sent any weather packets the latest 1 day(s).
| Time | Temp. | Humidity | Pressure | Rain* | Wind** | Luminosity | Snow |
|---|---|---|---|---|---|---|---|
| 1778304458 | 12.22° C | 47% | 1023.5 hPa | - | - | - | - |
| 1778303558 | 12.22° C | 47% | 1023.3 hPa | - | - | - | - |
| 1778302658 | 12.22° C | 47% | 1023.2 hPa | - | - | - | - |
| 1778301758 | 12.78° C | 47% | 1023 hPa | - | - | - | - |
| 1778300858 | 12.78° C | 47% | 1022.8 hPa | - | - | - | - |
| 1778298157 | 12.78° C | 47% | 1022.7 hPa | - | - | - | - |
| 1778297257 | 13.33° C | 46% | 1022.6 hPa | - | - | - | - |
| 1778296357 | 13.33° C | 46% | 1022.7 hPa | - | - | - | - |
| 1778295457 | 13.33° C | 46% | 1022.7 hPa | - | - | - | - |
| 1778294557 | 13.33° C | 46% | 1022.7 hPa | - | - | - | - |
| 1778293656 | 13.89° C | 46% | 1022.7 hPa | - | - | - | - |
| 1778292756 | 13.89° C | 46% | 1022.8 hPa | - | - | - | - |
| 1778291856 | 13.89° C | 46% | 1022.7 hPa | - | - | - | - |
| 1778290956 | 13.89° C | 45% | 1022.8 hPa | - | - | - | - |
| 1778290056 | 14.44° C | 46% | 1022.7 hPa | - | - | - | - |
| 1778289156 | 14.44° C | 46% | 1022.7 hPa | - | - | - | - |
| 1778288256 | 14.44° C | 45% | 1022.8 hPa | - | - | - | - |
| 1778287356 | 14.44° C | 45% | 1022.8 hPa | - | - | - | - |
| 1778285555 | 15° C | 45% | 1022.8 hPa | - | - | - | - |
| 1778281955 | 15.56° C | 44% | 1023 hPa | - | - | - | - |
| 1778281055 | 16.11° C | 44% | 1022.9 hPa | - | - | - | - |
| 1778274754 | 16.67° C | 44% | 1022.6 hPa | - | - | - | - |
| 1778273854 | 17.22° C | 43% | 1022.5 hPa | - | - | - | - |
| 1778268453 | 17.78° C | 43% | 1021.8 hPa | - | - | - | - |
| 1778267553 | 18.33° C | 43% | 1021.7 hPa | - | - | - | - |
* Rain since midnight (hover to see other rain measurements)
** Current wind speed in m/s (hover to see current wind gust speed)